STARLINK-3173, 51111

Orbit data source: Space-Track

STARLINK-3173, 51111 is a payload satellite owned by SpaceX/Seattle (US) in LEO that was launched on Wed, 19 Jan 2022 UTC via an FALCON 9 launch vehicle from the Air Force Eastern Test Range (AFETR). Payload-class satellites include a variety of spacecraft equipped with specific instruments for various scientific and technological missions. These include communications satellites like Starlink; space stations such as the ISS; scientific satellites like the Hubble; Earth observation satellites from companies like Planet Labs, Umbra, and HawkEye 360; GPS; miniature CubeSats for education and research; and military/defense satellites.

Loading next visibility...
Identifier
51111, 2022-005H
Orbit
LEO
Country
Flag of USUS
Related business
Manufacturer
SpaceX/Seattle
Mission
Operational Commercial Communications
Bus & Motor
STARLINK, Unknown motor
Mass
297 kg wet, ~275 kg dry
Launch date (UTC)
2022-01-19 (4 years ago)
Launch vehicle
FALCON 9
Launch site
Air Force Eastern Test Range (AFETR)
Object type
Payload
Rocket body
Debris
Shape & HBR
Box + 1 Pan, 10.1 m
Radar Cross Section
13.562 m², Large (>1 m²)

Expand to show TLE details & history
Last TLE update: 11 hours ago

TLE from 11 hours ago
0 STARLINK-3173
1 51111U 22005H   26094.24563695 -.00001908  00000-0 -10188-3 0  9990
2 51111  53.2157 174.3968 0001369 108.7986 251.3155 15.08821900232733
Epoch: 2026-04-04T05:53Z
TLE epoch observation values (Epoch: 2026-04-04T05:53:43.032Z)
Latitude
Longitude
-106.60067°
Altitude
540.999 km
Speed
7.593 km/s
True Right ascension
11h 37m 35s
True Declination
0° 00' 00"
Sunlit
Object was in full shadow at epoch
Visualization orbit readout
Latitude
Unknown
Longitude
Unknown
Altitude
Unknown
Speed
Unknown
Apparent Right ascension
Unknown
Apparent Declination
Unknown
Sunlit
N/A
Visualization observer readout
Local Sidereal Time
22:49:03
Azimuth
Unknown
Elevation
Unknown
Doppler factor
Unknown
Orbital elements
Apogee altitude
540.991 km
Perigee altitude
539.097 km
Semi-major axis
6,918.181 km
Eccentricity
0.00014
Inclination
53.2157°
RAAN
174.3968°
Arg. of periapsis
108.7986°
True anomaly
251.30064°
Mean anomaly
251.3155°
Eccentric anomaly
251.30807°
Mean motion
3.77186 °/min
Orbital period
95.44 mins
BSTAR
-0.00010188
Loading maneuver chart data...
Computing Atmospheric mass density...
Loading historical data...
Loading historical data...
Loading historical data...
Loading historical data...
Loading historical data...
Loading historical data...
Loading historical data...

Documentation

Showing up to 5 results
|